Current weather by "City, St" or "zip code"  
 
Advertise Here

Current Conditions: Duluth - Sky Harbor Airport, MN

Fair


66.0 F

Last Updated on Aug 4 2020, 4:55 pm CDT
Humidity: 56%
Wind Speed: E 9.2 mph
Barometer 30.11 in
Dewpoint: 50.0 F
Visibility: 10.00 mi
Precip: --
Heat Index: NA
Wind Chill: NA
Current conditions at:

Duluth - Sky Harbor Airport, MN (KDYT)

Lat: 46.72452 Lon: 92.04448

Local Radar Image active severe weather and emergency alerts image image weather storm and storm spotter reports image weather observation monitoring service image
Local
Radar
Active
Alerts
Storm Reports Obs
Monitoring

Sign-up For Email & Text Message Weather Alert Notification Services


Advertise Here

Observation History for Duluth - Sky Harbor Airport, MN


Time Wind
(mph)
Vis
(mi)
Weather Precip (in) Temperature (F) Relative
Humidity
Wind
Chill
(F)
Heat
Index
(F)
Pressure
Air Dwpt altimeter
(in)
sea level
(mb)
Rmks
4:55 pm CDT E 9.2 10.00 Fair -- 66.0 50.0 56% NA NA 30.11 M
3:55 pm CDT E 11.5 10.00 Fair -- 66.0 51.8 60% NA NA 30.13 M
2:55 pm CDT E 11.5 10.00 Fair -- 66.0 50.0 56% NA NA 30.14 M
1:55 pm CDT NE 9.2 10.00 Fair -- 68.0 50.0 53% NA NA 30.15 M
12:55 pm CDT NE 10.4 10.00 Fair -- 66.0 50.0 56% NA NA 30.16 M
11:55 am CDT NE 12.7 10.00 Fair -- 66.0 50.0 56% NA NA 30.16 M
10:55 am CDT NE 8.1 10.00 Fair -- 64.0 48.2 56% NA NA 30.17 M
9:55 am CDT NE 11.5 10.00 Fair -- 64.0 50.0 60% NA NA 30.16 M
8:55 am CDT E 11.5 10.00 Fair -- 64.0 51.8 64% NA NA 30.17 M
7:55 am CDT E 6.9 10.00 Fair -- 63.0 51.8 68% 63 NA 30.16 M
6:55 am CDT E 4.6 10.00 Partly Cloudy -- 61.0 51.8 72% 61 NA 30.16 M
5:55 am CDT E 6.9 10.00 Partly Cloudy -- 61.0 51.8 72% 60 NA 30.16 M
4:55 am CDT E 5.8 10.00 Partly Cloudy -- 61.0 48.2 63% 61 NA 30.15 M
3:55 am CDT SE 8.1 10.00 Partly Cloudy -- 61.0 48.2 63% 60 NA 30.14 M
2:55 am CDT E 6.9 10.00 Fair -- 63.0 48.2 60% 63 NA 30.15 M
1:55 am CDT E 6.9 10.00 Mostly Cloudy -- 63.0 48.2 60% 63 NA 30.16 M
12:55 am CDT E 9.2 10.00 Partly Cloudy -- 63.0 51.8 68% 62 NA 30.16 M
11:55 pm CDT SE 6.9 10.00 Overcast -- 63.0 53.6 73% 63 NA 30.14 M
10:55 pm CDT N 0.0 10.00 Overcast -- 66.0 53.6 64% NA NA 30.14 M
9:55 pm CDT SW 6.9 10.00 Overcast -- 66.0 51.8 60% NA NA 30.13 M
8:55 pm CDT SW 4.6 10.00 Partly Cloudy -- 70.0 50.0 50% NA NA 30.12 M
7:55 pm CDT SW 6.9 10.00 Fair -- 70.0 48.2 46% NA NA 30.13 M
6:55 pm CDT SW 8.1 10.00 Overcast -- 73.0 46.4 38% NA NA 30.13 M
5:55 pm CDT W 3.5 10.00 Mostly Cloudy -- 72.0 44.6 38% NA NA 30.15 M

Regional Weather Observation


Duluth - Sky Harbor Airport, MN (KDYT)

Fair
66.0 F

Richard I. Bong Airport, WI (KSUW)

Fair
68.0 F

Cloquet Carlton County Airport, MN (KCOQ)

Fair
68.0 F

Two Harbors, MN (KTWM)

Fair
66.0 F

Eveleth-Virginia Municipal Airport, MN (KEVM)

Fair
71.0 F

Moose Lake Carlton County Airport, MN (KMZH)

Fair
73.0 F